User: anonymous
Location: Oshawa
(43.9000°N, 78.8670°W)
Time: 03:52:28
(UTC-04:00)
Language:

Envisat - Orbit

View from above orbital plane
View from above orbital plane
View from above satellite
View from above satellite

Ground track
Ground track

The orbit data is extracted from the following two-line orbital elements,

1 27386U 02009A   14233.85294785  .00000028  00000-0  23616-4 0  3882
2 27386 098.3776 297.5732 0001329 107.3781 318.0485 14.37725422653016
Epoch (UTC): 21 August 2014 20:28:14
Eccentricity: 0.0001329
inclination: 98.3776°
perigee height: 765 km
apogee height: 767 km
right ascension of ascending node: 297.5732°
argument of perigee: 107.3781°
revolutions per day: 14.37725422
mean anomaly at epoch: 318.0485°
orbit number at epoch: 65301

The dashed part of the orbit path shows where the satellite is in the earth's shadow,  

DLR